Theta_e
355 355 356 354 355 355 354 356 355 356 356 355 356 355 353 352 352 353 355 356 355 355 353 353 352 351 352 352 351 351 352 349 349 351 350 349 349 350 351 353 350 350 350
356 353 353 352 356 359 358 358 356 355 354 354 355 355 354 354 354 355 354 356 355 354 353 353 353 353 353 354 352 351 352 352 352 351 349 350 350 352 355 353 351 349 349
358 359 356 353 356 359 359 360 359 358 353 353 354 354 356 353 352 354 355 355 357 356 356 355 355 355 354 353 353 353 352 351 352 351 353 354 354 354 353 353 352 350 348
358 360 357 353 355 359 357 358 357 353 352 352 352 353 353 352 353 353 355 355 356 353 355 356 357 357 356 355 354 353 353 354 355 354 355 356 354 354 353 353 352 351 350
360 358 357 356 358 356 355 356 354 354 351 352 351 354 354 353 352 350 352 352 354 353 355 352 353 356 357 357 356 355 356 358 358 359 358 356 356 354 354 355 353 352 351
360 357 358 358 360 355 354 352 355 352 353 353 348 350 354 354 354 353 352 352 353 353 354 356 355 354 352 354 355 355 355 357 360 360 359 359 358 357 356 355 353 352 351
360 360 356 358 359 357 357 354 353 352 350 353 351 349 350 350 351 352 353 353 353 354 354 355 356 356 356 352 353 354 355 356 358 360 360 358 359 359 358 356 355 352 350
361 359 359 358 359 355 357 356 353 348 351 353 347 346 336 342 347 349 352 351 351 353 353 355 357 358 359 357 358 355 355 356 357 358 360 359 358 358 358 356 354 353 352
361 361 360 360 359 357 353 356 353 351 346 349 351 345 338 333 340 349 348 349 350 351 352 354 355 357 359 358 359 358 356 354 354 356 359 360 359 358 358 357 355 353 351
360 357 360 361 360 355 357 355 352 351 352 345 350 351 350 347 337 335 346 346 348 348 352 352 351 353 356 356 360 357 354 353 355 356 357 360 361 360 359 358 357 354 352
362 358 359 362 360 358 359 359 356 355 351 348 348 349 352 349 349 342 336 343 351 351 354 353 352 353 355 357 355 355 353 351 351 354 355 357 358 359 361 361 359 358 357
360 362 360 361 362 360 359 359 361 357 355 355 354 355 351 344 346 346 343 344 344 349 351 353 353 354 355 355 357 353 352 351 350 350 351 352 353 354 356 357 359 361 361
355 361 363 362 360 362 361 361 362 361 359 356 358 356 355 353 355 351 347 343 341 347 349 354 353 356 355 358 358 352 353 348 346 343 343 345 347 349 350 352 354 355 356
356 362 364 364 363 362 361 361 358 357 360 358 358 360 358 358 357 355 350 346 340 344 347 348 356 354 355 359 358 353 360 347 343 340 340 341 343 345 347 348 349 349 349
357 361 362 363 364 363 363 362 357 358 360 360 359 360 357 358 358 358 355 352 346 336 338 345 345 356 356 359 361 364 364 350 345 343 340 340 341 342 343 344 344 344 344
361 360 361 362 362 363 362 362 359 360 361 358 358 361 360 357 357 357 354 353 350 346 339 349 349 355 360 359 360 364 363 351 349 344 342 340 339 340 341 341 342 341 341
361 361 362 362 362 362 363 363 362 360 359 359 360 360 359 362 355 354 356 354 351 350 344 346 354 358 362 364 364 366 362 363 358 347 342 340 337 337 339 338 337 337 337
360 361 362 362 362 362 363 361 360 359 359 358 358 359 358 356 359 361 356 360 357 358 351 350 356 354 360 365 365 366 362 358 363 350 342 338 337 336 334 333 332 331 329
357 357 360 361 362 362 362 362 362 361 361 360 358 359 359 359 359 357 359 356 356 357 358 354 352 356 359 360 361 363 363 365 360 350 343 341 340 338 335 330 325 322 320
355 355 357 358 360 362 362 362 362 362 362 361 361 360 360 360 360 363 360 362 360 358 357 355 353 353 355 360 360 353 352 355 357 359 353 348 343 344 337 327 326 324 320
354 355 356 356 358 357 357 361 362 361 361 360 361 361 360 358 349 352 357 360 362 358 355 353 351 351 351 351 353 353 351 354 358 359 358 357 361 364 361 337 331 325 322
354 354 353 355 355 352 339 339 354 360 361 360 359 361 362 351 350 339 338 340 350 359 357 352 349 349 355 356 354 353 352 350 346 356 359 355 362 363 364 352 325 324 322
354 353 353 354 356 358 334 334 340 357 360 361 362 361 359 357 354 361 343 336 337 335 340 358 356 356 357 359 360 359 358 354 352 356 359 352 361 360 364 335 324 323 320
351 352 352 355 355 354 332 330 335 356 360 361 361 362 362 362 361 360 360 359 360 361 359 354 357 360 362 364 365 362 361 360 359 357 364 352 360 359 360 343 324 322 320
350 350 351 353 354 355 329 327 334 353 354 360 362 362 362 362 346 334 357 357 359 359 345 335 336 335 335 333 340 356 352 350 347 349 359 357 358 359 362 360 340 322 318
351 350 350 353 344 354 332 323 330 348 350 350 357 363 337 352 334 327 354 357 355 355 356 357 359 348 338 349 330 351 356 350 349 347 359 356 355 360 354 361 350 342 338
Wind_Speed
5 5 5 4 3 3 3 3 3 4 4 3 3 4 4 4 4 2 2 5 4 4 4 2 1 2 2 2 3 4 4 5 6 7 7 7 7 8 8 8 5 7 7
4 4 4 4 2 2 2 2 3 4 4 3 4 4 4 3 3 2 2 3 1 3 3 3 3 3 4 4 4 4 5 5 5 6 7 7 8 10 10 7 4 5 5
3 3 3 3 2 1 1 1 1 2 4 4 6 4 2 3 2 2 1 2 2 4 3 4 4 4 5 6 6 6 6 6 7 7 8 9 9 9 9 9 5 5 4
1 1 3 3 4 2 2 2 1 3 4 3 3 3 2 1 1 0 1 2 2 3 4 4 6 6 6 7 7 8 8 8 9 10 10 9 10 9 9 9 8 7 6
4 2 2 3 3 3 3 3 3 3 3 2 1 2 1 1 2 1 2 3 3 4 3 2 6 7 8 8 8 9 9 9 9 10 10 9 10 10 10 9 9 8 7
5 4 3 3 2 3 3 3 4 4 2 2 2 2 1 2 3 3 3 3 3 5 5 5 4 3 6 9 10 10 11 10 9 10 9 9 9 10 11 10 10 10 9
4 4 3 3 3 1 3 4 4 4 3 1 1 0 2 4 4 4 4 4 4 5 5 5 5 4 3 7 10 11 11 11 11 10 9 9 9 10 11 11 11 11 11
5 5 4 3 3 3 3 3 3 3 2 1 2 1 2 2 0 3 3 4 5 4 5 5 6 6 6 5 6 8 10 10 11 12 11 11 10 11 12 12 12 12 13
5 4 5 3 3 2 4 4 4 3 2 3 2 3 1 4 4 1 0 2 3 3 4 5 6 6 6 6 5 5 8 9 11 12 12 12 12 12 13 14 14 14 14
5 5 5 5 4 4 3 4 4 2 2 3 3 1 1 2 3 3 1 1 2 3 3 3 4 4 5 5 5 8 10 11 11 13 14 14 14 15 16 16 17 17 16
6 5 5 5 5 4 4 4 4 3 2 1 1 2 1 1 0 3 4 4 1 1 2 3 4 4 4 5 5 6 7 11 12 12 14 15 16 17 18 18 19 19 19
5 6 6 6 5 4 5 5 4 4 3 2 2 1 2 2 3 2 2 3 4 3 3 3 4 3 3 4 5 8 10 11 11 12 13 15 16 17 17 18 18 19 20
6 7 8 7 6 5 5 4 5 4 5 3 4 2 1 0 1 2 2 3 3 3 3 2 4 4 4 4 5 7 7 8 10 10 11 12 13 13 14 14 15 17 17
7 8 8 7 6 6 5 5 4 4 4 4 4 2 1 1 1 1 3 4 3 2 1 4 1 4 5 5 5 8 6 5 8 8 9 10 10 10 11 11 13 14 14
6 8 8 8 7 6 6 6 5 5 4 4 4 4 4 2 2 2 2 2 3 5 5 2 4 3 5 5 5 9 9 9 10 9 10 10 11 12 11 10 10 10 10
8 8 9 9 9 8 7 8 6 6 6 5 5 5 5 4 4 3 3 3 3 4 5 3 5 4 6 6 5 9 10 9 3 9 10 11 11 11 11 10 9 8 8
8 9 9 9 9 9 9 9 9 7 8 7 6 6 7 6 5 4 4 4 4 4 6 6 4 4 5 7 9 9 9 9 7 7 10 11 11 10 10 9 8 7 7
10 10 9 9 10 10 10 11 10 9 10 9 8 8 8 6 7 6 5 5 5 4 6 8 6 6 6 8 8 9 8 9 8 7 12 11 9 10 9 7 5 6 8
13 12 10 10 11 11 11 11 11 11 11 10 9 9 9 8 8 6 7 6 5 5 6 7 8 6 7 7 9 8 8 8 8 8 9 6 7 8 6 6 9 9 9
13 13 13 13 11 10 11 11 11 11 11 11 10 10 10 10 9 8 7 8 7 7 7 7 8 8 7 6 7 8 9 8 9 10 7 6 10 5 8 11 9 10 9
14 14 13 14 13 12 10 12 12 11 11 12 11 11 11 11 10 9 7 7 7 8 7 8 9 8 8 7 8 8 9 9 9 5 7 11 9 7 4 9 9 10 8
14 14 15 15 15 13 12 13 12 11 12 11 12 12 12 10 12 12 13 13 11 10 10 9 9 10 10 9 7 8 9 9 8 5 8 10 8 6 4 3 7 6 5
14 14 15 15 16 16 12 15 17 13 12 12 13 12 12 10 12 12 13 13 12 14 15 11 12 12 12 10 9 10 9 9 10 10 9 9 7 6 3 7 4 5 7
14 13 15 15 15 14 14 17 17 17 13 15 14 14 14 13 13 12 11 12 12 11 11 10 13 14 13 11 10 9 10 9 9 9 4 7 7 5 3 5 5 5 5
13 14 14 15 16 16 15 17 15 16 16 16 15 15 15 15 13 15 14 13 13 13 10 13 14 13 13 10 9 8 9 9 10 8 4 7 6 6 5 4 6 7 5
14 12 14 15 16 17 14 17 17 14 15 14 15 15 15 18 14 16 15 14 14 14 12 12 9 11 13 14 12 12 10 10 10 9 3 5 6 4 4 4 5 5 5
Wind_Direction
118 112 102 101 89 106 102 96 64 34 17 15 86 96 82 73 69 73 72 61 34 23 58 34 57 14 5 356 348 337 338 359 352 346 347 344 342 335 330 331 13 11 23
126 125 121 117 108 100 81 49 40 21 25 63 90 96 75 83 82 74 69 109 17 357 353 310 336 323 316 313 311 323 329 326 325 327 328 326 325 319 325 331 358 3 359
141 133 132 143 120 139 129 144 62 63 60 86 79 89 80 69 85 67 359 4 104 209 278 296 302 294 297 306 308 306 305 303 306 310 311 306 312 322 328 335 338 334 326
238 196 177 142 135 145 133 129 114 85 64 80 82 78 62 74 65 117 287 305 312 308 189 247 284 279 286 292 296 299 299 297 295 297 297 308 313 314 314 318 315 308 301
179 205 183 146 166 152 121 130 117 70 84 80 124 91 70 360 263 250 264 262 268 277 301 163 268 283 276 282 292 297 296 292 290 295 302 300 300 303 303 301 299 294 284
158 182 172 155 165 154 128 107 116 80 80 34 71 85 325 263 251 256 262 252 254 257 266 274 282 261 246 271 279 284 290 294 295 292 289 286 290 295 295 293 289 285 274
176 183 176 159 152 180 90 125 127 133 118 93 251 206 261 252 251 255 262 268 264 258 271 270 274 287 283 238 268 275 282 289 293 294 295 288 281 279 278 277 273 272 267
177 181 163 187 177 158 158 132 154 148 115 116 16 330 11 144 275 281 258 268 283 284 277 273 282 279 283 294 297 278 278 282 287 291 289 284 277 273 268 265 264 262 258
195 191 176 195 201 215 178 160 169 191 138 122 46 337 352 19 332 64 287 292 303 280 289 278 278 276 273 279 282 276 247 269 279 283 283 277 271 265 262 259 256 255 254
181 189 182 184 190 211 189 174 169 155 198 141 160 149 11 337 347 348 70 359 275 270 290 288 299 299 291 281 286 273 278 275 276 279 284 283 273 263 257 253 249 248 247
180 191 192 188 199 207 181 187 179 167 178 207 205 155 197 203 240 313 359 15 126 48 353 303 317 306 304 295 301 297 285 279 278 280 283 284 284 283 280 272 265 257 252
187 190 192 195 193 200 198 196 191 178 186 171 172 165 306 330 28 356 333 5 354 17 340 344 350 332 321 309 296 298 292 288 286 284 286 287 288 290 290 288 285 279 271
194 193 193 193 196 195 199 202 203 197 189 193 196 179 130 166 41 18 345 24 345 4 354 34 44 40 31 4 359 349 316 292 284 290 290 291 291 294 296 297 294 291 288
202 188 195 205 188 188 198 211 223 231 205 207 201 219 208 212 229 339 2 346 349 359 340 347 346 20 13 0 340 289 345 312 303 302 306 297 301 314 310 306 301 295 292
211 197 195 202 190 188 198 193 216 212 214 206 214 218 241 253 250 253 275 305 327 325 331 26 330 16 349 339 357 336 334 355 314 322 305 319 330 321 315 313 303 297 297
216 197 200 200 198 194 202 198 206 205 216 215 227 219 236 242 244 246 254 248 242 284 299 324 321 322 329 323 344 327 329 292 336 298 317 319 317 312 311 313 316 326 330
208 210 204 199 201 201 203 208 214 206 214 219 220 226 232 234 247 242 240 243 241 243 275 302 288 310 301 312 324 328 322 318 332 329 319 313 310 315 321 330 339 347 8
214 216 208 205 202 205 200 208 215 217 214 216 215 217 231 224 229 231 234 246 256 247 271 283 308 297 295 316 310 314 324 326 332 333 309 300 309 316 330 340 16 46 54
224 223 218 214 208 206 205 212 215 217 221 223 222 218 225 220 227 233 232 240 241 244 235 267 289 287 298 304 314 311 320 318 308 324 303 277 308 310 344 51 63 59 45
223 226 228 228 222 213 207 211 213 221 227 226 226 225 225 223 231 234 233 244 246 253 248 256 273 285 290 304 294 308 321 326 325 325 320 293 295 298 102 92 75 57 39
223 225 227 234 232 226 216 210 212 215 223 227 227 231 229 231 223 236 249 245 254 247 259 267 276 280 282 303 312 320 305 319 316 329 321 327 338 338 94 98 103 67 43
222 222 227 230 230 234 219 201 210 214 218 223 226 228 237 220 232 226 227 239 252 255 260 273 278 282 285 282 296 302 307 316 318 316 317 320 321 323 17 70 76 76 45
221 223 227 229 231 232 215 203 208 225 223 222 224 226 229 230 221 238 222 231 242 235 236 257 266 268 279 279 287 289 293 298 296 307 310 307 309 317 72 120 112 92 58
226 226 230 229 232 234 214 207 203 225 232 233 229 227 230 236 227 227 236 246 249 252 234 230 240 255 260 269 271 276 292 288 276 279 284 284 322 307 134 129 130 115 82
227 230 235 235 231 236 214 213 204 225 232 233 233 232 231 235 230 206 234 247 254 257 243 226 246 257 255 260 262 283 268 276 289 294 267 274 296 306 270 196 167 141 111
237 232 236 235 234 239 221 214 206 234 231 232 232 234 215 235 212 194 218 239 247 253 259 266 239 240 243 253 225 230 252 262 276 291 226 243 292 305 286 194 189 191 183